| time (UTC) | temp F | wind direction | speed knots | gust knots | rain 1hr in | rain 24hr in | rain mn in | humidity % | barometer mb |
| 20260503235049 | 55 | 283 | 0.9 | 6.1 | 0.00 | 0.00 | 0.00 | 32 | 1017.0 |
| 20260503234548 | 55 | 295 | 2.6 | 6.1 | 0.00 | 0.00 | 0.00 | 32 | 1017.0 |
| 20260503234047 | 56 | 290 | 0.9 | 8.7 | 0.00 | 0.00 | 0.00 | 32 | 1017.0 |
| 20260503233546 | 56 | 261 | 0.9 | 7.8 | 0.00 | 0.00 | 0.00 | 32 | 1017.0 |
| 20260503233047 | 56 | 232 | 2.6 | 8.7 | 0.00 | 0.00 | 0.00 | 31 | 1017.0 |
| 20260503232547 | 56 | 258 | 1.7 | 8.7 | 0.00 | 0.00 | 0.00 | 31 | 1016.9 |
| 20260503232046 | 56 | 300 | 0.9 | 9.6 | 0.00 | 0.00 | 0.00 | 31 | 1016.9 |
| 20260503231546 | 56 | 278 | 0.9 | 9.6 | 0.00 | 0.00 | 0.00 | 30 | 1016.9 |
| 20260503231047 | 56 | 350 | 1.7 | 9.6 | 0.00 | 0.00 | 0.00 | 30 | 1016.8 |
| 20260503230546 | 56 | 1 | 1.7 | 9.6 | 0.00 | 0.00 | 0.00 | 29 | 1017.0 |
| 20260503230107 | 57 | 252 | 4.3 | 9.6 | 0.00 | 0.00 | 0.00 | 29 | 1016.9 |
| 20260503225545 | 57 | 314 | 4.3 | 9.6 | 0.00 | 0.00 | 0.00 | 28 | 1017.0 |
| 20260503225045 | 57 | 25 | 2.6 | 7.0 | 0.00 | 0.00 | 0.00 | 27 | 1017.0 |
| 20260503224545 | 57 | 303 | 3.5 | 11.3 | 0.00 | 0.00 | 0.00 | 28 | 1017.0 |
| 20260503224045 | 57 | 330 | 3.5 | 11.3 | 0.00 | 0.00 | 0.00 | 28 | 1017.1 |
| 20260503223544 | 58 | 328 | 4.3 | 8.7 | 0.00 | 0.00 | 0.00 | 27 | 1017.0 |
| 20260503223046 | 58 | 308 | 1.7 | 8.7 | 0.00 | 0.00 | 0.00 | 27 | 1017.2 |
| 20260503222544 | 58 | 226 | 2.6 | 8.7 | 0.00 | 0.00 | 0.00 | 26 | 1017.1 |
| 20260503222044 | 57 | 19 | 2.6 | 12.2 | 0.00 | 0.00 | 0.00 | 26 | 1017.1 |
| 20260503221544 | 58 | 121 | 6.1 | 12.2 | 0.00 | 0.00 | 0.00 | 26 | 1017.3 |
| 20260503221044 | 58 | 284 | 3.5 | 12.2 | 0.00 | 0.00 | 0.00 | 25 | 1017.3 |
| 20260503220544 | 58 | 356 | 3.5 | 12.2 | 0.00 | 0.00 | 0.00 | 25 | 1017.2 |
| 20260503220048 | 58 | 19 | 6.1 | 12.2 | 0.00 | 0.00 | 0.00 | 25 | 1017.2 |
| 20260503215543 | 59 | 304 | 2.6 | 9.6 | 0.00 | 0.00 | 0.00 | 25 | 1017.2 |
| 20260503215042 | 58 | 247 | 2.6 | 11.3 | 0.00 | 0.00 | 0.00 | 24 | 1017.2 |
| 20260503214544 | 58 | 1 | 6.1 | 12.2 | 0.00 | 0.00 | 0.00 | 23 | 1017.3 |
| 20260503214043 | 58 | 4 | 2.6 | 12.2 | 0.00 | 0.00 | 0.00 | 24 | 1017.3 |
| 20260503213544 | 58 | 148 | 4.3 | 10.4 | 0.00 | 0.00 | 0.00 | 24 | 1017.3 |
| 20260503213044 | 58 | 104 | 3.5 | 12.2 | 0.00 | 0.00 | 0.00 | 24 | 1017.4 |
| 20260503212543 | 58 | 233 | 3.5 | 12.2 | 0.00 | 0.00 | 0.00 | 24 | 1017.4 |
| 20260503212042 | 58 | 65 | 1.7 | 12.2 | 0.00 | 0.00 | 0.00 | 24 | 1017.5 |
| 20260503211542 | 58 | 307 | 3.5 | 13.9 | 0.00 | 0.00 | 0.00 | 24 | 1017.5 |
| 20260503211041 | 59 | 300 | 6.1 | 13.9 | 0.00 | 0.00 | 0.00 | 23 | 1017.5 |
| 20260503210541 | 59 | 54 | 3.5 | 10.4 | 0.00 | 0.00 | 0.00 | 22 | 1017.6 |
| 20260503210041 | 59 | 132 | 3.5 | 11.3 | 0.00 | 0.00 | 0.00 | 22 | 1017.7 |
| 20260503205542 | 59 | 260 | 3.5 | 11.3 | 0.00 | 0.00 | 0.00 | 23 | 1017.8 |
| 20260503205041 | 58 | 219 | 2.6 | 10.4 | 0.00 | 0.00 | 0.00 | 23 | 1017.8 |
| 20260503204540 | 58 | 335 | 1.7 | 8.7 | 0.00 | 0.00 | 0.00 | 24 | 1017.9 |
| 20260503204040 | 59 | 248 | 4.3 | 9.6 | 0.00 | 0.00 | 0.00 | 22 | 1017.9 |
| 20260503203539 | 58 | 257 | 5.2 | 9.6 | 0.00 | 0.00 | 0.00 | 20 | 1018.1 |
| 20260503203057 | 59 | 286 | 4.3 | 9.6 | 0.00 | 0.00 | 0.00 | 22 | 1018.0 |
| 20260503202539 | 60 | 316 | 1.7 | 9.6 | 0.00 | 0.00 | 0.00 | 25 | 1018.0 |
| 20260503202041 | 59 | 281 | 2.6 | 9.6 | 0.00 | 0.00 | 0.00 | 25 | 1018.0 |
| 20260503201539 | 60 | 258 | 1.7 | 11.3 | 0.00 | 0.00 | 0.00 | 24 | 1018.1 |
| 20260503201038 | 60 | 286 | 3.5 | 11.3 | 0.00 | 0.00 | 0.00 | 26 | 1018.1 |
| 20260503200542 | 60 | 243 | 2.6 | 13.0 | 0.00 | 0.00 | 0.00 | 28 | 1018.0 |
| 20260503200038 | 59 | 273 | 6.1 | 13.0 | 0.00 | 0.00 | 0.00 | 25 | 1018.0 |
| 20260503195537 | 60 | 298 | 2.6 | 8.7 | 0.00 | 0.00 | 0.00 | 27 | 1018.2 |
| 20260503195038 | 60 | 108 | 0.0 | 5.2 | 0.00 | 0.00 | 0.00 | 28 | 1018.1 |
| 20260503194543 | 60 | 129 | 1.7 | 5.2 | 0.00 | 0.00 | 0.00 | 26 | 1018.2 |
| 20260503194038 | 60 | 224 | 2.6 | 8.7 | 0.00 | 0.00 | 0.00 | 27 | 1018.2 |
| 20260503193538 | 60 | 237 | 2.6 | 8.7 | 0.00 | 0.00 | 0.00 | 27 | 1018.2 |
| 20260503193039 | 60 | 212 | 0.9 | 5.2 | 0.00 | 0.00 | 0.00 | 27 | 1018.3 |
| 20260503192535 | 59 | 267 | 0.9 | 5.2 | 0.00 | 0.00 | 0.00 | 28 | 1018.3 |
| 20260503192036 | 59 | 149 | 0.9 | 7.8 | 0.00 | 0.00 | 0.00 | 28 | 1018.5 |
| 20260503191540 | 58 | 276 | 2.6 | 7.8 | 0.00 | 0.00 | 0.00 | 27 | 1018.6 |
| 20260503191033 | 58 | 226 | 3.5 | 7.8 | 0.00 | 0.00 | 0.00 | 30 | 1018.7 |
| 20260503190534 | 57 | 215 | 1.7 | 6.1 | 0.00 | 0.00 | 0.00 | 27 | 1018.6 |
| 20260503190039 | 56 | 353 | 1.7 | 10.4 | 0.00 | 0.00 | 0.00 | 26 | 1018.7 |
| 20260503185531 | 56 | 125 | 1.7 | 10.4 | 0.00 | 0.00 | 0.00 | 29 | 1018.8 |
| 20260503185034 | 57 | 323 | 3.5 | 10.4 | 0.00 | 0.00 | 0.00 | 28 | 1018.7 |
| 20260503184533 | 57 | 326 | 4.3 | 9.6 | 0.00 | 0.00 | 0.00 | 27 | 1018.6 |
| 20260503184032 | 57 | 205 | 1.7 | 9.6 | 0.00 | 0.00 | 0.00 | 28 | 1018.7 |
| 20260503183535 | 56 | 203 | 0.9 | 6.1 | 0.00 | 0.00 | 0.00 | 29 | 1018.8 |
| 20260503183032 | 55 | 86 | 3.5 | 8.7 | 0.00 | 0.00 | 0.00 | 27 | 1019.0 |
| 20260503182531 | 56 | 338 | 5.2 | 8.7 | 0.00 | 0.00 | 0.00 | 26 | 1019.1 |
| 20260503182031 | 55 | 283 | 1.7 | 8.7 | 0.00 | 0.00 | 0.00 | 26 | 1019.1 |
| 20260503181531 | 55 | 305 | 3.5 | 8.7 | 0.00 | 0.00 | 0.00 | 25 | 1019.2 |
| 20260503181030 | 57 | 344 | 2.6 | 7.0 | 0.00 | 0.00 | 0.00 | 26 | 1019.1 |
| 20260503180531 | 57 | 335 | 1.7 | 6.1 | 0.00 | 0.00 | 0.00 | 24 | 1019.2 |
| 20260503180034 | 57 | 330 | 3.5 | 5.2 | 0.00 | 0.00 | 0.00 | 25 | 1019.2 |
| 20260503175529 | 56 | 203 | 0.0 | 5.2 | 0.00 | 0.00 | 0.00 | 27 | 1019.1 |
| 20260503175027 | 55 | 192 | 0.9 | 10.4 | 0.00 | 0.00 | 0.00 | 27 | 1019.3 |
| 20260503174526 | 54 | 224 | 3.5 | 10.4 | 0.00 | 0.00 | 0.00 | 27 | 1019.5 |
| 20260503174030 | 54 | 203 | 1.7 | 9.6 | 0.00 | 0.00 | 0.00 | 26 | 1019.5 |
| 20260503173526 | 53 | 319 | 0.9 | 7.8 | 0.00 | 0.00 | 0.00 | 29 | 1019.5 |
| 20260503173026 | 53 | 65 | 3.5 | 8.7 | 0.00 | 0.00 | 0.00 | 25 | 1019.6 |
| 20260503172525 | 54 | 353 | 3.5 | 7.8 | 0.00 | 0.00 | 0.00 | 25 | 1019.8 |
| 20260503172025 | 54 | 349 | 1.7 | 9.6 | 0.00 | 0.00 | 0.00 | 26 | 1019.7 |
| 20260503171523 | 53 | 224 | 3.5 | 9.6 | 0.00 | 0.00 | 0.00 | 27 | 1019.9 |
| 20260503171022 | 53 | 264 | 1.7 | 7.0 | 0.00 | 0.00 | 0.00 | 27 | 1020.0 |
| 20260503170523 | 52 | 239 | 2.6 | 11.3 | 0.00 | 0.00 | 0.00 | 29 | 1020.0 |
| 20260503151005 | 47 | 323 | 2.6 | 7.8 | 0.00 | 0.00 | 0.00 | 35 | 1020.7 |
| 20260503150503 | 46 | 300 | 2.6 | 10.4 | 0.00 | 0.00 | 0.00 | 36 | 1020.8 |
| 20260503131043 | 41 | 152 | 4.3 | 10.4 | 0.00 | 0.00 | 0.00 | 54 | 1020.1 |
| 20260503130541 | 40 | 289 | 2.6 | 8.7 | 0.00 | 0.00 | 0.00 | 56 | 1020.2 |
| 20260503110523 | 36 | 293 | 1.7 | 5.2 | 0.00 | 0.00 | 0.00 | 68 | 1018.7 |
| 20260503090510 | 36 | 13 | 2.6 | 7.0 | 0.00 | 0.00 | 0.00 | 76 | 1017.5 |
| 20260503081505 | 36 | 330 | 1.7 | 6.1 | 0.00 | 0.00 | 0.00 | 75 | 1017.2 |
| 20260503081100 | 36 | 318 | 1.7 | 6.1 | 0.00 | 0.00 | 0.00 | 75 | 1017.1 |
| 20260503080602 | 36 | 315 | 1.7 | 6.1 | 0.00 | 0.00 | 0.00 | 76 | 1017.0 |
| 20260503072554 | 36 | 326 | 0.0 | 1.7 | 0.00 | 0.00 | 0.00 | 78 | 1016.8 |
| 20260503072054 | 36 | 324 | 0.9 | 2.6 | 0.00 | 0.00 | 0.00 | 79 | 1016.8 |
| 20260503071553 | 35 | 353 | 0.9 | 2.6 | 0.00 | 0.00 | 0.00 | 79 | 1016.7 |
| 20260503071052 | 35 | 319 | 0.0 | 2.6 | 0.00 | 0.00 | 0.00 | 79 | 1016.6 |
| 20260503070555 | 35 | 338 | 0.0 | 1.7 | 0.00 | 0.00 | 0.00 | 80 | 1016.4 |
| 20260503060110 | 35 | 229 | 0.0 | 0.9 | 0.00 | 0.00 | 0.00 | 82 | 1016.5 |
| 20260503055045 | 35 | 157 | 0.0 | 0.9 | 0.00 | 0.00 | 0.00 | 82 | 1016.3 |
| 20260503054559 | 35 | 192 | 0.0 | 0.9 | 0.00 | 0.00 | 0.00 | 81 | 1016.3 |
| 20260503054045 | 35 | 220 | 0.0 | 1.7 | 0.00 | 0.00 | 0.00 | 80 | 1016.2 |
| 20260503053544 | 35 | 328 | 0.0 | 1.7 | 0.00 | 0.00 | 0.00 | 80 | 1016.2 |
| 20260503053045 | 35 | 210 | 0.0 | 0.9 | 0.00 | 0.00 | 0.00 | 81 | 1016.2 |
| 20260503052546 | 35 | 210 | 0.0 | 0.9 | 0.00 | 0.00 | 0.00 | 81 | 1016.1 |
| 20260503052045 | 35 | 210 | 0.0 | 0.9 | 0.00 | 0.00 | 0.00 | 81 | 1016.2 |
| 20260503051541 | 35 | 352 | 0.0 | 0.9 | 0.00 | 0.00 | 0.00 | 79 | 1016.1 |
| 20260503051042 | 36 | 352 | 0.0 | 0.9 | 0.00 | 0.00 | 0.00 | 78 | 1016.2 |
| 20260503050540 | 36 | 352 | 0.0 | 1.7 | 0.00 | 0.00 | 0.00 | 77 | 1016.1 |
| 20260503050039 | 36 | 353 | 0.0 | 1.7 | 0.00 | 0.00 | 0.00 | 78 | 1016.1 |
| 20260503045538 | 36 | 202 | 0.0 | 0.0 | 0.00 | 0.00 | 0.00 | 76 | 1016.0 |
| 20260503045037 | 36 | 202 | 0.0 | 0.0 | 0.00 | 0.00 | 0.00 | 75 | 1016.0 |
| 20260503044536 | 36 | 202 | 0.0 | 0.0 | 0.00 | 0.00 | 0.00 | 75 | 1016.0 |
| 20260503044036 | 37 | 202 | 0.0 | 0.0 | 0.00 | 0.00 | 0.00 | 75 | 1015.9 |
| 20260503043536 | 37 | 202 | 0.0 | 0.9 | 0.00 | 0.00 | 0.00 | 74 | 1015.9 |
| 20260503043036 | 37 | 202 | 0.0 | 0.9 | 0.00 | 0.00 | 0.00 | 73 | 1015.9 |
| 20260503042534 | 37 | 233 | 0.0 | 0.9 | 0.00 | 0.00 | 0.00 | 72 | 1016.0 |
| 20260503042031 | 38 | 233 | 0.0 | 0.9 | 0.00 | 0.00 | 0.00 | 71 | 1016.0 |
| 20260503041530 | 38 | 233 | 0.0 | 0.9 | 0.00 | 0.00 | 0.00 | 70 | 1015.9 |
| 20260503041033 | 39 | 233 | 0.0 | 0.9 | 0.00 | 0.00 | 0.00 | 69 | 1016.0 |
| 20260503040529 | 39 | 233 | 0.0 | 1.7 | 0.00 | 0.00 | 0.00 | 69 | 1015.8 |
| 20260503040034 | 39 | 254 | 0.0 | 1.7 | 0.00 | 0.00 | 0.00 | 68 | 1015.8 |
| 20260503035525 | 39 | 12 | 0.0 | 0.9 | 0.00 | 0.00 | 0.00 | 67 | 1015.8 |
| 20260503035024 | 40 | 12 | 0.0 | 0.9 | 0.00 | 0.00 | 0.00 | 66 | 1015.8 |
| 20260503034523 | 40 | 12 | 0.0 | 1.7 | 0.00 | 0.00 | 0.00 | 65 | 1015.7 |
| 20260503034022 | 40 | 338 | 0.0 | 2.6 | 0.00 | 0.00 | 0.00 | 65 | 1015.7 |
| 20260503033522 | 40 | 336 | 0.0 | 3.5 | 0.00 | 0.00 | 0.00 | 65 | 1015.6 |
| 20260503033028 | 40 | 8 | 0.9 | 5.2 | 0.00 | 0.00 | 0.00 | 65 | 1015.7 |
| 20260503032522 | 40 | 335 | 2.6 | 5.2 | 0.00 | 0.00 | 0.00 | 65 | 1015.6 |
| 20260503032021 | 40 | 297 | 0.9 | 6.1 | 0.00 | 0.00 | 0.00 | 65 | 1015.5 |
| 20260503031520 | 41 | 337 | 1.7 | 6.1 | 0.00 | 0.00 | 0.00 | 64 | 1015.5 |
| 20260503031019 | 41 | 1 | 0.9 | 3.5 | 0.00 | 0.00 | 0.00 | 63 | 1015.4 |
| 20260503030517 | 41 | 326 | 0.9 | 3.5 | 0.00 | 0.00 | 0.00 | 63 | 1015.4 |
| 20260503030016 | 41 | 326 | 0.9 | 6.1 | 0.00 | 0.00 | 0.00 | 62 | 1015.2 |
| 20260503025617 | 41 | 346 | 2.6 | 6.1 | 0.00 | 0.00 | 0.00 | 62 | 1015.2 |
| 20260503025016 | 42 | 315 | 2.6 | 7.8 | 0.00 | 0.00 | 0.00 | 61 | 1015.1 |
| 20260503024514 | 42 | 344 | 2.6 | 7.8 | 0.00 | 0.00 | 0.00 | 61 | 1015.0 |
| 20260503024014 | 42 | 308 | 3.5 | 7.8 | 0.00 | 0.00 | 0.00 | 61 | 1015.0 |
| 20260503023513 | 42 | 25 | 4.3 | 7.8 | 0.00 | 0.00 | 0.00 | 61 | 1014.9 |
| 20260503023012 | 42 | 27 | 3.5 | 7.8 | 0.00 | 0.00 | 0.00 | 61 | 1014.9 |
| 20260503022512 | 42 | 342 | 1.7 | 5.2 | 0.00 | 0.00 | 0.00 | 61 | 1014.9 |
| 20260503022012 | 42 | 352 | 1.7 | 7.0 | 0.00 | 0.00 | 0.00 | 61 | 1014.9 |
| 20260503021511 | 42 | 330 | 3.5 | 7.8 | 0.00 | 0.00 | 0.00 | 60 | 1015.0 |
| 20260503021011 | 42 | 328 | 1.7 | 5.2 | 0.00 | 0.00 | 0.00 | 60 | 1014.9 |
| 20260503020510 | 42 | 333 | 1.7 | 5.2 | 0.00 | 0.00 | 0.00 | 60 | 1014.9 |
| 20260503020009 | 42 | 293 | 0.9 | 7.0 | 0.00 | 0.00 | 0.00 | 59 | 1014.9 |
| 20260503015508 | 42 | 333 | 2.6 | 7.0 | 0.00 | 0.00 | 0.00 | 59 | 1014.8 |
| 20260503015006 | 43 | 356 | 1.7 | 6.1 | 0.00 | 0.00 | 0.00 | 59 | 1014.8 |
| 20260503014508 | 43 | 314 | 1.7 | 8.7 | 0.00 | 0.00 | 0.00 | 58 | 1014.7 |
| 20260503014007 | 43 | 299 | 3.5 | 8.7 | 0.00 | 0.00 | 0.00 | 58 | 1014.6 |
| 20260503013508 | 43 | 329 | 2.6 | 6.1 | 0.00 | 0.00 | 0.00 | 58 | 1014.6 |
| 20260503013104 | 43 | 338 | 1.7 | 6.1 | 0.00 | 0.00 | 0.00 | 58 | 1014.6 |
| 20260503012504 | 43 | 334 | 2.6 | 6.1 | 0.00 | 0.00 | 0.00 | 58 | 1014.5 |
| 20260503012005 | 43 | 13 | 2.6 | 7.0 | 0.00 | 0.00 | 0.00 | 58 | 1014.5 |
| 20260503011503 | 43 | 338 | 3.5 | 7.0 | 0.00 | 0.00 | 0.00 | 58 | 1014.4 |
| 20260503011002 | 43 | 331 | 2.6 | 5.2 | 0.00 | 0.00 | 0.00 | 58 | 1014.3 |
| 20260503010501 | 43 | 347 | 2.6 | 7.0 | 0.00 | 0.00 | 0.00 | 58 | 1014.3 |
| 20260503010001 | 43 | 314 | 2.6 | 7.8 | 0.00 | 0.00 | 0.00 | 58 | 1014.2 |
| 20260503005600 | 44 | 314 | 3.5 | 7.8 | 0.00 | 0.00 | 0.00 | 58 | 1014.1 |
| 20260503005100 | 44 | 341 | 1.7 | 7.0 | 0.00 | 0.00 | 0.00 | 57 | 1014.0 |
| 20260503004600 | 44 | 352 | 3.5 | 7.8 | 0.00 | 0.00 | 0.00 | 56 | 1014.1 |
| 20260503004100 | 44 | 16 | 2.6 | 13.0 | 0.00 | 0.00 | 0.00 | 56 | 1013.9 |
| 20260503003559 | 44 | 348 | 3.5 | 13.0 | 0.00 | 0.00 | 0.00 | 55 | 1013.9 |
| 20260503003058 | 45 | 335 | 4.3 | 15.6 | 0.00 | 0.00 | 0.00 | 55 | 1013.9 |
| 20260503002600 | 45 | 15 | 5.2 | 15.6 | 0.00 | 0.00 | 0.00 | 55 | 1013.9 |
| 20260503002058 | 45 | 2 | 7.0 | 13.0 | 0.00 | 0.00 | 0.00 | 54 | 1013.9 |
| 20260503001557 | 45 | 250 | 7.0 | 13.0 | 0.00 | 0.00 | 0.00 | 54 | 1013.8 |
| 20260503001100 | 45 | 344 | 3.5 | 11.3 | 0.00 | 0.00 | 0.00 | 55 | 1013.7 |
| 20260503000557 | 45 | 319 | 4.3 | 11.3 | 0.00 | 0.00 | 0.00 | 54 | 1013.7 |
| 20260503000054 | 46 | 8 | 5.2 | 10.4 | 0.00 | 0.00 | 0.00 | 54 | 1013.5 |
| 20260502235554 | 46 | 22 | 3.5 | 12.2 | 0.00 | 0.00 | 0.00 | 54 | 1013.5 |